Location: Erdweis
(48.5167°N, 15.3500°E)
Time: 01:11:04
(UTC+00:00)

NOSS 2-2 (C) - Pass Details

Date: 17 January 2021
Orbit: 463 x 1745 km, 63.3° (Epoch: 03 March)

Event Time Altitude Azimuth Distance (km) Brightness Sun altitude
Rises 16:27:55 0° 289° (WNW) 2,570 7.6 -8.8°
Reaches altitude 10° 16:30:54 10° 318° (NW) 1,800 6.2 -9.3°
Maximum altitude 16:32:57 14° 350° (N) 1,679 5.7 -9.6°
Drops below altitude 10° 16:35:14 10° 21° (NNE) 2,034 5.8 -10.0°
Enters shadow 16:36:28 - 32° (NNE) 2,369 6.1 -10.2°
